Content
SEND FEEDBACK

Daily
Averages
Monthly
Summary
United States of America

MILWAUKEE, WISCONSIN


Home > North America > United States > Wisconsin
Elevation: 672 feet     Latitude: 42 57N     Longitude: 087 54W

WEATHER
 
SELECT A DAY
Number of Records: 199,692;   Date Range: 1/1/95 - 7/26/14
 
SHARE

PRINT THIS DATA

[ ← Previous Day ]
WEATHER ALMANAC - MARCH 19, 2013
[ Next Day → ]
[ °C ]   °F
Weather ElementAverageHighLow
Temperature21.9 °F30.9 °F (4:52 pm)15.1 °F (7:52 am)
Dewpoint8.6 °F10.9 °F (1:52 am)6.1 °F (4:52 am)
Humidity57.8 %71 % (1:52 am)41 % (3:52 pm)
Barometer29.88 in30.04 in (10:52 pm)29.70 in (1:23 am)
Wind Speed17.9 mph25.3 mph (1:52 pm)
Wind Gust34.5 mph (10:52 am)
Weather ElementAverage
Visibility9.3 mi
Wind DirectionW (269.2 °)

Weather ElementTotal
Precipitation---
Heating Degree Days42 (Base 65)
Averaged from 25 records on March 19, 2013
WEATHER CONDITIONS BREAKOUT
WIND DIRECTION BREAKOUT
WEATHER BY HOUR - MARCH 19, 2013
[ °C ]   °F
Local TimeTemperatureDewpointHumidityBarometerVisibilityWind DirectionWind SpeedGust SpeedPrecipitationEventsConditions
1:23 AM19.4 °F10.4 °F68 %29.70 in10.0 miWest (260°)18.4 mph27.6 mphOvercast
1:52 AM19.0 °F10.9 °F71 %29.73 in7.0 miWest (270°)15.0 mph21.9 mph0.00 inSnowLight Snow
2:32 AM17.6 °F8.6 °F68 %29.71 in9.0 miWest (270°)16.1 mph23.0 mph0.00 inOvercast
2:52 AM18.0 °F9.0 °F68 %29.74 in10.0 miWest (270°)11.5 mph19.6 mph0.00 inMostly Cloudy
3:52 AM18.0 °F8.1 °F65 %29.75 in10.0 miWest (270°)16.1 mph26.5 mphMostly Cloudy
4:52 AM16.0 °F6.1 °F65 %29.77 in10.0 miWest (270°)15.0 mph26.5 mphMostly Cloudy
5:52 AM16.0 °F8.1 °F71 %29.79 in4.0 miWest (270°)15.0 mph24.2 mph0.00 inSnowLight Snow
6:52 AM17.1 °F8.1 °F68 %29.79 in10.0 miWest (260°)15.0 mph24.2 mph0.00 inOvercast
7:52 AM15.1 °F7.0 °F70 %29.81 in8.0 miWest (260°)16.1 mph27.6 mphMostly Cloudy
8:52 AM16.0 °F7.0 °F68 %29.83 in5.0 miWest (260°)19.6 mph31.1 mph0.00 inSnowLight Snow
9:52 AM16.0 °F7.0 °F68 %29.85 in9.0 miWest (270°)18.4 mph27.6 mph0.00 inMostly Cloudy
10:52 AM19.0 °F7.0 °F59 %29.85 in10.0 miWest (270°)23.0 mph34.5 mphScattered Clouds
11:52 AM21.0 °F8.1 °F57 %29.88 in10.0 miWest (280°)20.7 mph34.5 mphPartly Cloudy
12:52 PM24.1 °F9.0 °F53 %29.90 in10.0 miWest (270°)24.2 mph32.2 mphPartly Cloudy
1:52 PM27.0 °F10.0 °F49 %29.91 in10.0 miWNW (290°)25.3 mph32.2 mphClear
2:52 PM28.0 °F9.0 °F45 %29.92 in10.0 miWest (280°)23.0 mph33.4 mphClear
3:52 PM30.0 °F9.0 °F41 %29.93 in10.0 miWest (270°)21.9 mph29.9 mphClear
4:52 PM30.9 °F10.0 °F42 %29.95 in10.0 miWest (260°)21.9 mph29.9 mphClear
5:52 PM30.0 °F10.0 °F43 %29.98 in10.0 miWest (270°)19.6 mph32.2 mphPartly Cloudy
6:52 PM28.0 °F10.0 °F47 %29.99 in10.0 miWest (260°)17.3 mph27.6 mphScattered Clouds
7:52 PM26.1 °F9.0 °F49 %30.01 in10.0 miWest (260°)16.1 mph29.9 mphPartly Cloudy
8:52 PM25.0 °F9.0 °F51 %30.02 in10.0 miWest (270°)17.3 mph26.5 mphClear
9:52 PM24.1 °F8.1 °F51 %30.02 in10.0 miWest (270°)16.1 mph24.2 mphClear
10:52 PM23.0 °F8.1 °F53 %30.04 in10.0 miWest (270°)11.5 mph23.0 mphPartly Cloudy
11:52 PM21.9 °F8.1 °F55 %30.04 in10.0 miWest (280°)12.7 mph20.7 mphPartly Cloudy
Hourly data recorded from KMKE, located miles away from Milwaukee, Wisconsin







STORIES FROM OUR PARTNERS